| time (UTC) | temp F | wind direction | speed MPH | gust MPH | rain 1hr in | rain 24hr in | rain mn in | humidity % | barometer mb |
| 20260503200510 | 74 | 33 | 5.0 | 9.0 | 0.00 | 0.04 | 0.01 | 46 | 1018.5 |
| 20260503200022 | 74 | 70 | 5.0 | 7.0 | 0.00 | 0.04 | 0.01 | 45 | 1018.6 |
| 20260503195504 | 74 | 5 | 3.0 | 8.0 | 0.00 | 0.04 | 0.01 | 48 | 1018.7 |
| 20260503195003 | 73 | 151 | 4.0 | 8.0 | 0.00 | 0.04 | 0.01 | 46 | 1018.7 |
| 20260503194509 | 73 | 200 | 4.0 | 9.0 | 0.00 | 0.04 | 0.01 | 48 | 1018.8 |
| 20260503194004 | 73 | 156 | 6.0 | 9.0 | 0.00 | 0.04 | 0.01 | 46 | 1018.9 |
| 20260503193508 | 72 | 179 | 4.0 | 9.0 | 0.00 | 0.05 | 0.01 | 48 | 1018.9 |
| 20260503193014 | 73 | 176 | 4.0 | 11.0 | 0.00 | 0.05 | 0.01 | 48 | 1019.0 |
| 20260503192512 | 73 | 114 | 7.0 | 12.0 | 0.00 | 0.05 | 0.01 | 46 | 1019.2 |
| 20260503192008 | 73 | 71 | 6.0 | 12.0 | 0.00 | 0.05 | 0.01 | 47 | 1019.2 |
| 20260503191528 | 73 | 261 | 3.0 | 6.0 | 0.00 | 0.05 | 0.01 | 46 | 1019.2 |
| 20260503191011 | 73 | 280 | 1.0 | 5.0 | 0.00 | 0.05 | 0.01 | 46 | 1019.4 |
| 20260503190509 | 73 | 252 | 3.0 | 5.0 | 0.00 | 0.05 | 0.01 | 45 | 1019.5 |
| 20260503190030 | 73 | 261 | 3.0 | 8.0 | 0.00 | 0.06 | 0.01 | 45 | 1019.6 |
| 20260503185511 | 73 | 262 | 4.0 | 9.0 | 0.00 | 0.06 | 0.01 | 47 | 1019.7 |
| 20260503185010 | 73 | 332 | 2.0 | 9.0 | 0.00 | 0.06 | 0.01 | 45 | 1019.8 |
| 20260503184505 | 73 | 22 | 4.0 | 5.0 | 0.00 | 0.06 | 0.01 | 47 | 1019.9 |
| 20260503184005 | 73 | 293 | 2.0 | 9.0 | 0.00 | 0.06 | 0.01 | 45 | 1019.9 |
| 20260503183509 | 73 | 53 | 7.0 | 9.0 | 0.00 | 0.07 | 0.01 | 45 | 1020.0 |
| 20260503183011 | 72 | 354 | 2.0 | 6.0 | 0.00 | 0.07 | 0.01 | 47 | 1020.2 |
| 20260503182507 | 72 | 91 | 2.0 | 6.0 | 0.00 | 0.07 | 0.01 | 47 | 1020.2 |
| 20260503182006 | 72 | 39 | 4.0 | 7.0 | 0.00 | 0.08 | 0.01 | 46 | 1020.3 |
| 20260503181515 | 72 | 25 | 3.0 | 7.0 | 0.00 | 0.08 | 0.01 | 46 | 1020.2 |
| 20260503181008 | 72 | 285 | 3.0 | 6.0 | 0.00 | 0.08 | 0.01 | 46 | 1020.3 |
| 20260503180505 | 71 | 141 | 2.0 | 7.0 | 0.00 | 0.08 | 0.01 | 45 | 1020.3 |
| 20260503180029 | 71 | 276 | 5.0 | 8.0 | 0.00 | 0.09 | 0.01 | 44 | 1020.3 |
| 20260503175505 | 71 | 262 | 5.0 | 10.0 | 0.00 | 0.09 | 0.01 | 44 | 1020.4 |
| 20260503175008 | 71 | 342 | 7.0 | 10.0 | 0.00 | 0.09 | 0.01 | 46 | 1020.4 |
| 20260503174510 | 71 | 353 | 6.0 | 8.0 | 0.00 | 0.10 | 0.01 | 47 | 1020.5 |
| 20260503174004 | 71 | 26 | 4.0 | 6.0 | 0.00 | 0.10 | 0.01 | 48 | 1020.5 |
| 20260503173503 | 72 | 158 | 2.0 | 7.0 | 0.00 | 0.11 | 0.01 | 45 | 1020.5 |
| 20260503173002 | 72 | 157 | 2.0 | 7.0 | 0.00 | 0.11 | 0.01 | 46 | 1020.5 |
| 20260503172502 | 72 | 186 | 3.0 | 12.0 | 0.00 | 0.11 | 0.01 | 45 | 1020.6 |
| 20260503172003 | 71 | 86 | 5.0 | 11.0 | 0.00 | 0.12 | 0.01 | 45 | 1020.7 |
| 20260503171506 | 71 | 113 | 4.0 | 7.0 | 0.00 | 0.12 | 0.01 | 46 | 1020.7 |
| 20260503171002 | 71 | 21 | 2.0 | 9.0 | 0.00 | 0.12 | 0.01 | 48 | 1020.8 |
| 20260503170505 | 71 | 356 | 2.0 | 9.0 | 0.01 | 0.13 | 0.01 | 51 | 1020.8 |
| 20260503151002 | 63 | 32 | 6.0 | 9.0 | 0.00 | 0.27 | 0.00 | 77 | 1021.6 |
| 20260503150506 | 62 | 25 | 5.0 | 9.0 | 0.00 | 0.28 | 0.00 | 77 | 1021.6 |
| 20260503131005 | 55 | 1 | 4.0 | 9.0 | 0.00 | 0.70 | 0.00 | 94 | 1020.9 |
| 20260503110511 | 52 | 359 | 3.0 | 4.0 | 0.00 | 0.71 | 0.00 | 94 | 1019.4 |
| 20260503090503 | 53 | 335 | 2.0 | 3.0 | 0.00 | 0.71 | 0.00 | 94 | 1018.1 |
| 20260503081502 | 54 | 360 | 2.0 | 3.0 | 0.00 | 0.71 | 0.00 | 94 | 1018.0 |
| 20260503081002 | 54 | 352 | 2.0 | 2.0 | 0.00 | 0.71 | 0.00 | 94 | 1018.1 |
| 20260503080501 | 54 | 321 | 1.0 | 2.0 | 0.00 | 0.71 | 0.00 | 94 | 1018.0 |
| 20260503072502 | 54 | 357 | 2.0 | 4.0 | 0.00 | 0.71 | 0.00 | 94 | 1018.0 |
| 20260503072002 | 54 | 353 | 2.0 | 4.0 | 0.00 | 0.71 | 0.00 | 94 | 1018.0 |
| 20260503071505 | 54 | 359 | 3.0 | 4.0 | 0.00 | 0.71 | 0.00 | 94 | 1018.1 |
| 20260503071002 | 54 | 359 | 2.0 | 4.0 | 0.00 | 0.71 | 0.00 | 94 | 1018.0 |
| 20260503070502 | 54 | 335 | 1.0 | 4.0 | 0.00 | 0.71 | 0.00 | 94 | 1018.0 |
| 20260503055003 | 55 | 1 | 3.0 | 4.0 | 0.00 | 0.71 | 0.00 | 94 | 1017.4 |
| 20260503054503 | 55 | 356 | 3.0 | 4.0 | 0.00 | 0.71 | 0.00 | 94 | 1017.4 |
| 20260503054002 | 55 | 356 | 2.0 | 3.0 | 0.00 | 0.71 | 0.00 | 94 | 1017.4 |
| 20260503053502 | 55 | 360 | 2.0 | 3.0 | 0.00 | 0.71 | 0.00 | 94 | 1017.4 |
| 20260503053003 | 55 | 357 | 2.0 | 3.0 | 0.00 | 0.71 | 0.00 | 94 | 1017.5 |
| 20260503052502 | 55 | 354 | 1.0 | 2.0 | 0.00 | 0.71 | 0.00 | 94 | 1017.5 |
| 20260503052002 | 55 | 354 | 0.0 | 2.0 | 0.00 | 0.71 | 0.00 | 94 | 1017.5 |
| 20260503051502 | 55 | 354 | 0.0 | 2.0 | 0.00 | 0.71 | 0.00 | 94 | 1017.4 |
| 20260503051002 | 55 | 354 | 0.0 | 2.0 | 0.00 | 0.71 | 0.00 | 94 | 1017.4 |
| 20260503050503 | 56 | 354 | 0.0 | 2.0 | 0.00 | 0.71 | 0.00 | 94 | 1017.3 |
| 20260503050004 | 56 | 354 | 0.0 | 1.0 | 0.00 | 0.71 | 0.00 | 94 | 1017.3 |
| 20260503045504 | 56 | 354 | 0.0 | 1.0 | 0.00 | 0.71 | 0.00 | 94 | 1017.2 |
| 20260503045004 | 56 | 354 | 0.0 | 1.0 | 0.00 | 0.71 | 0.00 | 94 | 1017.1 |
| 20260503044501 | 56 | 354 | 1.0 | 2.0 | 0.00 | 0.71 | 0.00 | 94 | 1017.0 |
| 20260503044003 | 56 | 354 | 1.0 | 2.0 | 0.00 | 0.71 | 0.00 | 94 | 1017.0 |
| 20260503043505 | 56 | 349 | 1.0 | 2.0 | 0.00 | 0.71 | 0.00 | 94 | 1017.0 |
| 20260503043003 | 56 | 335 | 1.0 | 1.0 | 0.00 | 0.71 | 0.00 | 93 | 1017.0 |
| 20260503042504 | 56 | 359 | 1.0 | 1.0 | 0.00 | 0.71 | 0.00 | 93 | 1016.9 |
| 20260503042004 | 56 | 322 | 0.0 | 2.0 | 0.00 | 0.71 | 0.00 | 94 | 1016.7 |
| 20260503041503 | 56 | 322 | 0.0 | 2.0 | 0.00 | 0.71 | 0.00 | 94 | 1016.6 |
| 20260503041003 | 56 | 322 | 0.0 | 2.0 | 0.00 | 0.71 | 0.00 | 94 | 1016.5 |
| 20260503040502 | 56 | 322 | 1.0 | 2.0 | 0.01 | 0.71 | 0.00 | 94 | 1016.5 |
| 20260503040005 | 56 | 354 | 0.0 | 2.0 | 0.01 | 0.71 | 0.00 | 93 | 1016.5 |
| 20260503035503 | 56 | 354 | 0.0 | 2.0 | 0.01 | 0.71 | 0.71 | 93 | 1016.4 |
| 20260503035003 | 56 | 354 | 1.0 | 1.0 | 0.01 | 0.71 | 0.71 | 93 | 1016.4 |
| 20260503034502 | 56 | 354 | 1.0 | 1.0 | 0.01 | 0.71 | 0.71 | 93 | 1016.3 |
| 20260503034002 | 56 | 340 | 1.0 | 2.0 | 0.01 | 0.71 | 0.71 | 93 | 1016.4 |
| 20260503033503 | 56 | 345 | 1.0 | 2.0 | 0.01 | 0.71 | 0.71 | 93 | 1016.3 |
| 20260503033002 | 57 | 341 | 1.0 | 2.0 | 0.01 | 0.71 | 0.71 | 93 | 1016.4 |
| 20260503032503 | 57 | 341 | 0.0 | 2.0 | 0.01 | 0.71 | 0.71 | 93 | 1016.4 |
| 20260503032003 | 57 | 341 | 1.0 | 1.0 | 0.01 | 0.71 | 0.71 | 93 | 1016.4 |
| 20260503031503 | 57 | 288 | 1.0 | 1.0 | 0.01 | 0.71 | 0.71 | 93 | 1016.4 |
| 20260503031004 | 57 | 157 | 0.0 | 2.0 | 0.01 | 0.71 | 0.71 | 93 | 1016.3 |
| 20260503030504 | 57 | 157 | 0.0 | 2.0 | 0.00 | 0.70 | 0.70 | 93 | 1016.2 |
| 20260503030006 | 58 | 157 | 0.0 | 2.0 | 0.00 | 0.70 | 0.70 | 93 | 1016.2 |
| 20260503025504 | 58 | 157 | 1.0 | 2.0 | 0.00 | 0.70 | 0.70 | 93 | 1016.1 |
| 20260503025003 | 58 | 69 | 0.0 | 2.0 | 0.00 | 0.70 | 0.70 | 93 | 1016.2 |
| 20260503024503 | 58 | 1 | 0.0 | 2.0 | 0.00 | 0.70 | 0.70 | 93 | 1016.2 |
| 20260503024003 | 58 | 1 | 0.0 | 2.0 | 0.00 | 0.70 | 0.70 | 93 | 1016.1 |
| 20260503023502 | 58 | 1 | 0.0 | 0.0 | 0.00 | 0.70 | 0.70 | 93 | 1016.1 |
| 20260503023004 | 58 | 1 | 0.0 | 0.0 | 0.00 | 0.70 | 0.70 | 93 | 1016.1 |
| 20260503022503 | 58 | 1 | 0.0 | 0.0 | 0.00 | 0.70 | 0.70 | 93 | 1016.1 |
| 20260503022003 | 58 | 1 | 0.0 | 0.0 | 0.00 | 0.70 | 0.70 | 93 | 1016.0 |
| 20260503021503 | 59 | 1 | 0.0 | 2.0 | 0.00 | 0.70 | 0.70 | 93 | 1015.9 |
| 20260503021004 | 59 | 1 | 0.0 | 2.0 | 0.00 | 0.70 | 0.70 | 92 | 1015.7 |
| 20260503020503 | 59 | 1 | 1.0 | 2.0 | 0.00 | 0.70 | 0.70 | 92 | 1015.6 |
| 20260503020004 | 59 | 36 | 0.0 | 2.0 | 0.00 | 0.70 | 0.70 | 93 | 1015.7 |
| 20260503015504 | 59 | 36 | 0.0 | 2.0 | 0.00 | 0.70 | 0.70 | 93 | 1015.7 |
| 20260503015003 | 59 | 36 | 0.0 | 2.0 | 0.00 | 0.70 | 0.70 | 93 | 1015.6 |
| 20260503014505 | 59 | 34 | 0.0 | 2.0 | 0.00 | 0.70 | 0.70 | 92 | 1015.6 |
| 20260503014003 | 59 | 1 | 0.0 | 2.0 | 0.00 | 0.70 | 0.70 | 92 | 1015.5 |
| 20260503013504 | 59 | 1 | 1.0 | 2.0 | 0.00 | 0.70 | 0.70 | 92 | 1015.3 |
| 20260503013010 | 59 | 360 | 1.0 | 2.0 | 0.00 | 0.70 | 0.70 | 92 | 1015.3 |
| 20260503012503 | 60 | 360 | 1.0 | 2.0 | 0.00 | 0.70 | 0.70 | 92 | 1015.2 |
| 20260503012004 | 60 | 347 | 1.0 | 2.0 | 0.00 | 0.70 | 0.70 | 92 | 1015.1 |
| 20260503011504 | 60 | 15 | 0.0 | 2.0 | 0.00 | 0.70 | 0.70 | 92 | 1014.9 |
| 20260503011001 | 60 | 355 | 1.0 | 4.0 | 0.00 | 0.70 | 0.70 | 92 | 1015.0 |
| 20260503010501 | 60 | 348 | 2.0 | 4.0 | 0.00 | 0.70 | 0.70 | 92 | 1015.0 |
| 20260503010003 | 60 | 331 | 2.0 | 4.0 | 0.00 | 0.70 | 0.70 | 92 | 1015.1 |
| 20260503005503 | 60 | 330 | 2.0 | 5.0 | 0.00 | 0.70 | 0.70 | 92 | 1015.0 |
| 20260503005003 | 60 | 359 | 4.0 | 5.0 | 0.00 | 0.70 | 0.70 | 92 | 1014.7 |
| 20260503004505 | 60 | 337 | 2.0 | 5.0 | 0.00 | 0.70 | 0.70 | 93 | 1014.5 |
| 20260503004003 | 60 | 333 | 3.0 | 6.0 | 0.00 | 0.70 | 0.70 | 93 | 1014.4 |
| 20260503003503 | 60 | 355 | 4.0 | 6.0 | 0.00 | 0.70 | 0.70 | 93 | 1014.3 |
| 20260503003006 | 60 | 345 | 3.0 | 8.0 | 0.00 | 0.70 | 0.70 | 93 | 1014.2 |
| 20260503002503 | 60 | 11 | 5.0 | 8.0 | 0.00 | 0.70 | 0.70 | 92 | 1014.0 |
| 20260503002004 | 60 | 360 | 5.0 | 7.0 | 0.00 | 0.70 | 0.70 | 92 | 1013.8 |
| 20260503001503 | 60 | 360 | 4.0 | 6.0 | 0.00 | 0.70 | 0.70 | 92 | 1013.8 |
| 20260503001003 | 60 | 351 | 2.0 | 6.0 | 0.00 | 0.70 | 0.70 | 92 | 1013.8 |
| 20260503000507 | 60 | 16 | 4.0 | 7.0 | 0.00 | 0.70 | 0.70 | 92 | 1013.6 |
| 20260503000002 | 60 | 350 | 3.0 | 7.0 | 0.00 | 0.70 | 0.70 | 92 | 1013.6 |
| 20260502235502 | 60 | 5 | 5.0 | 7.0 | 0.00 | 0.70 | 0.70 | 92 | 1013.6 |
| 20260502235002 | 60 | 356 | 5.0 | 8.0 | 0.00 | 0.70 | 0.70 | 92 | 1013.5 |
| 20260502234503 | 60 | 356 | 5.0 | 11.0 | 0.00 | 0.70 | 0.70 | 92 | 1013.5 |
| 20260502234004 | 60 | 360 | 5.0 | 11.0 | 0.00 | 0.70 | 0.70 | 92 | 1013.4 |
| 20260502233503 | 60 | 357 | 6.0 | 11.0 | 0.00 | 0.70 | 0.70 | 92 | 1013.4 |
| 20260502233004 | 60 | 343 | 8.0 | 12.0 | 0.00 | 0.70 | 0.70 | 92 | 1013.5 |
| 20260502232503 | 60 | 345 | 7.0 | 17.0 | 0.00 | 0.70 | 0.70 | 92 | 1013.5 |
| 20260502232003 | 60 | 360 | 11.0 | 17.0 | 0.01 | 0.70 | 0.70 | 92 | 1013.2 |
| 20260502231505 | 61 | 359 | 6.0 | 11.0 | 0.01 | 0.70 | 0.70 | 92 | 1013.2 |
| 20260502231004 | 61 | 344 | 7.0 | 11.0 | 0.01 | 0.70 | 0.70 | 92 | 1013.1 |
| 20260502230502 | 61 | 354 | 6.0 | 9.0 | 0.01 | 0.70 | 0.70 | 92 | 1013.1 |
| 20260502230011 | 61 | 347 | 5.0 | 12.0 | 0.01 | 0.70 | 0.70 | 92 | 1013.1 |
| 20260502225503 | 61 | 359 | 7.0 | 12.0 | 0.01 | 0.70 | 0.70 | 92 | 1012.9 |
| 20260502225003 | 61 | 360 | 6.0 | 12.0 | 0.01 | 0.70 | 0.70 | 92 | 1013.0 |
| 20260502223503 | 61 | 345 | 6.0 | 9.0 | 0.01 | 0.70 | 0.70 | 92 | 1012.7 |
| 20260502223007 | 61 | 344 | 5.0 | 9.0 | 0.01 | 0.70 | 0.70 | 92 | 1012.6 |
| 20260502222503 | 61 | 326 | 5.0 | 9.0 | 0.01 | 0.70 | 0.70 | 1012.6 | |
| 20260502221505 | 61 | 335 | 5.0 | 11.0 | 0.00 | 0.69 | 0.69 | 92 | 1012.4 |
| 20260502221003 | 61 | 4 | 7.0 | 11.0 | 0.00 | 0.69 | 0.69 | 92 | 1012.1 |
| 20260502220504 | 61 | 5 | 6.0 | 11.0 | 0.00 | 0.69 | 0.69 | 92 | 1012.1 |
| 20260502220013 | 62 | 337 | 6.0 | 11.0 | 0.00 | 0.69 | 0.69 | 92 | 1012.1 |
| 20260502215507 | 62 | 1 | 8.0 | 11.0 | 0.00 | 0.69 | 0.69 | 92 | 1011.9 |
| 20260502215006 | 62 | 342 | 7.0 | 11.0 | 0.00 | 0.69 | 0.69 | 92 | 1011.8 |
| 20260502214509 | 62 | 11 | 6.0 | 11.0 | 0.00 | 0.69 | 0.69 | 92 | 1011.7 |
| 20260502214003 | 62 | 359 | 7.0 | 11.0 | 0.00 | 0.69 | 0.69 | 92 | 1011.6 |
| 20260502213504 | 62 | 335 | 6.0 | 13.0 | 0.01 | 0.69 | 0.69 | 92 | 1011.5 |
| 20260502211504 | 62 | 323 | 7.0 | 12.0 | 0.01 | 0.69 | 0.69 | 91 | 1011.4 |
| 20260502211003 | 62 | 349 | 8.0 | 14.0 | 0.01 | 0.69 | 0.69 | 92 | 1011.6 |
| 20260502210506 | 63 | 338 | 7.0 | 14.0 | 0.01 | 0.69 | 0.69 | 92 | 1011.6 |
| 20260502205504 | 63 | 326 | 7.0 | 14.0 | 0.01 | 0.69 | 0.69 | 92 | 1011.5 |
| 20260502205008 | 63 | 327 | 7.0 | 14.0 | 0.01 | 0.69 | 0.69 | 91 | 1011.4 |
| 20260502204512 | 64 | 304 | 11.0 | 15.0 | 0.01 | 0.69 | 0.69 | 91 | 1011.4 |
| 20260502204006 | 65 | 326 | 9.0 | 15.0 | 0.01 | 0.69 | 0.69 | 91 | 1011.1 |
| 20260502203506 | 65 | 329 | 9.0 | 14.0 | 0.01 | 0.68 | 0.68 | 91 | 1011.1 |
| 20260502203016 | 66 | 317 | 4.0 | 8.0 | 0.01 | 0.68 | 0.68 | 92 | 1011.1 |
| 20260502202507 | 66 | 311 | 5.0 | 8.0 | 0.01 | 0.68 | 0.68 | 91 | 1010.9 |
| 20260502202002 | 66 | 310 | 4.0 | 6.0 | 0.01 | 0.68 | 0.68 | 92 | 1010.9 |